www.pogodaiklimat.ru

Погода и климат >> Архив погоды >> Украина >> Остер


ПОГОДА в Остере

  • Прогноз погоды в Остере
  • Монитор погоды в Остере

АРХИВ ПОГОДЫ в Остере

Время (UTC), дата Ветер
(напр.,м/с)
 
Видим.   Явления Облачность Т
(С)
Тd
(С)
f
(%)
Тe
(С)
Тes
(С)
Комфортность P
(гПа)
Po
(гПа)
Тmin
(С)
Tmax
(С)
R
(мм)
R24
(мм)
S
(см)
00 12.06 В 2 10 км ясно +19.5 +15.4 77 +22 +22 комфорт 1018.0 1004.6
06 12.06 В 2 20 км ясно +26.3 +17.6 59 +31 +39 душно 1017.6 1004.5 +17.0
09 12.06 В 2 20 км 4/4 1000 м
[Cu hum]
+30.0 +16.4 44 +33 +43 душно 1016.8 1003.9
12 12.06 ЮВ 2 20 км 6/6 1000 м
[Cu med, cong]
+31.2 +13.9 35 +33 +39 жарко 1015.7 1002.8
15 12.06 В 2 20 км 5/5 1000 м
[Cu hum]
+29.8 +15.0 41 +32 +35 душно 1014.7 1001.8
18 12.06 штиль 0 20 км ясно +28.2 +18.9 57 +33 +33 очень
душно
1015.0 1002.0 +31.5
21 12.06 штиль 0 20 км ясно +22.4 +15.8 66 +26 +26 жарко 1016.5 1003.2
00 13.06 штиль 0 20 км ясно +19.7 +15.1 75 +22 +22 комфорт 1016.6 1003.2
03 13.06 С 2 14 км 8/0
[Cs]
+19.1 +16.6 85 +21 +22 комфорт 1016.9 1003.5
06 13.06 В 2 20 км 4/0
[Ci fib]
+26.8 +16.3 53 +30 +38 душно 1017.7 1004.6 +18.7
09 13.06 В 2 20 км 5/0
[Ci fib]
+30.5 +14.0 37 +32 +45 жарко 1017.8 1004.9
12 13.06 ЮВ 2 20 км 8/5 600 м
[Cu med, cong Ci fib]
+31.6 +15.1 37 +34 +40 душно 1017.6 1004.7
15 13.06 Ю 4 20 км гроза, ливневой дождь 10/10 300 м
[Cb cap]
+25.6 +20.6 74 +32 +32 очень
душно
1017.5 1004.4
18 13.06 С 2 15 км {гроза, ливн. осадки} 8/3 600 м
[Sc Ci fib]
+22.6 +19.8 84 +29 +29 очень
душно
1018.2 1005.0 +31.7 6
21 13.06 штиль 0 10 км 6/0
[Cs]
+21.7 +19.3 86 +27 +27 душно 1019.6 1006.3
00 14.06 В 2 10 км 6/0
[Cs]
+19.7 +17.6 88 +23 +23 комфорт 1019.7 1006.3
06 14.06 штиль 0 20 км 6/0
[Ci fib]
+23.5 +17.9 71 +28 +37 душно 1019.9 1006.7 +18.3
12 14.06 ЮЗ 2 20 км 6/4 1000 м
[Cu med, cong Ci fib]
+30.7 +18.1 47 +35 +43 очень
душно
1018.3 1005.4
15 14.06 З 2 20 км 9/8 600 м
[Cb cap Ci fib]
+28.9 +18.3 53 +34 +35 очень
душно
1017.5 1004.5
18 14.06 З 2 20 км 9/0
[Ac trans Cs]
+27.0 +19.8 65 +33 +33 очень
душно
1016.9 1003.9 +31.2
00 15.06 ЮЗ 2 10 км дымка 8/8 600 м
[Sc]
+20.4 +19.1 92 +25 +25 комфорт 1016.3 1003.0
03 15.06 Ю 2 14 км 3/1 600 м
[Sc Ac cast]
+21.5 +18.3 82 +26 +26 душно 1016.1 1002.8
06 15.06 ЮЗ 2 20 км 1/0
[Ci fib]
+24.1 +18.9 73 +29 +37 душно 1016.4 1003.2 +20.4
09 15.06 С 4 20 км 3/0
[Ci fib]
+29.1 +16.9 48 +33 +44 очень
душно
1015.6 1002.7
12 15.06 СЗ 4 20 км 1/1 1000 м
[Cu hum]
+31.5 +13.6 34 +33 +42 жарко 1014.1 1001.3
18 15.06 штиль 0 20 км ясно +27.7 +17.0 52 +32 +32 очень
душно
1013.4 1000.4 +31.9
21 15.06 штиль 0 20 км ясно +20.3 +15.2 73 +23 +23 комфорт 1013.9 1000.6
00 16.06 штиль 0 20 км 1/0
[Ac und]
+19.1 +15.2 78 +20 +20 1014.3 1000.9
03 16.06 штиль 0 20 км 8/8 600 м
[Sc]
+18.7 +13.6 72 +19 +20 1014.0 1000.6
06 16.06 штиль 0 20 км 6/6 600 м
[Sc]
+23.6 +16.0 62 +27 +31 жарко 1014.4 1001.2 +17.4
12 16.06 СЗ 2 20 км 5/1 1000 м
[Cu hum Ci fib]
+29.0 +11.6 34 +30 +42 жарко 1013.9 1000.9
18 16.06 В 2 20 км 4/0
[Ac trans]
+25.8 +12.5 44 +28 +28 жарко 1013.7 1000.6 +30.1
21 16.06 штиль 0 20 км 3/0
[Ci fib]
+21.1 +11.6 55 +23 +23 комфорт 1014.5 1001.2
00 17.06 штиль 0 20 км 8/0
[Ac trans]
+18.9 +13.1 69 +20 +20 1014.8 1001.4
03 17.06 ЮЗ 2 20 км в посл. час ливневой дождь 9/9 300 м
[Cb cap]
+17.4 +15.0 86 +18 +18 1015.0 1001.5
06 17.06 ЮВ 2 20 км {ливн. осадки} 9/8 300 м
[Cb cap Ac trans]
+20.1 +15.2 73 +23 +24 комфорт 1016.0 1002.6 +17.0 0.0
12 17.06 ЮЗ 2 20 км 6/4 600 м
[Cu Sc As trans]
+31.8 +14.3 35 +34 +40 душно 1013.9 1001.1
18 17.06 Ю 2 20 км 9/4 600 м
[Cb cap Cs]
+26.4 +17.3 57 +30 +30 душно 1013.8 1000.8 +31.9
00 18.06 С 2 20 км 9/0
[Ac trans Ci fib]
+20.7 +16.0 74 +25 +25 комфорт 1016.0 1002.7
06 18.06 СЗ 2 20 км ясно +21.6 +16.3 72 +25 +34 комфорт 1017.0 1003.7 +18.2
12 18.06 СЗ 4 20 км 8/8 1000 м
[Cu hum]
+27.6 +15.1 46 +30 +32 жарко 1016.3 1003.3
18 18.06 СЗ 2 20 км 3/3 600 м
[Sc]
+24.7 +16.4 60 +28 +28 душно 1015.7 1002.6 +28.2

 

Местоположение метеостанции Остер (Черниговская область, Украина): широта 50.95 долгота 30.88 высота над уровнем моря 104 м.

В архиве по умолчанию представлена погода в Остере за последнюю неделю. Архивные данные за месяц целиком и за предыдущие месяцы, начиная с января 2011 года, Вы можете получить, выбрав интересующий диапазон дат из раскрывающегося списка и нажав кнопку "Ввод!".


*Определитесь, кто Вы:
робот инопланетянин человек

Внимание! Время в таблицах - всемирное. Для получения местного времени необходимо прибавить поправку, которая равна 2 ч.

Смотрите также архив погоды в соседних городах и на ближайших метеорологических станциях:

Погода в Вышгороде (Киевская область, Украина) (50 км)
Погода в Чернобыле (Киевская область, Украина) (58 км)
Погода в Чернигове (Черниговская область, Украина) (63 км)
Погода в Киеве (город Киев, Украина) (65 км)
Погода в Борисполе (Киевская область, Украина) (69 км)
Погода в Барышевке (Киевская область, Украина) (72 км)
Погода в Нежине (Черниговская область, Украина) (72 км)
Погода в Тетереве (Киевская область, Украина) (95 км)
Погода в Покошичах (Черниговская область, Украина) (99 км)
Погода в Брагине (Гомельская область, Беларусь) (103 км)

Пояснения к столбцам:

Ветер - указаны скорость ветра в м/с - средняя за 10 мин, порывы в срок и между сроками (в фигурных скобках) и направление, откуда дует ветер: С - северный, СВ - северо-восточный, В - восточный, ЮВ - юго-восточный, Ю - южный, ЮЗ - юго-западный, З - западный, СЗ - северо-западный.
Видимость - горизонтальная дальность видимости в метрах или километрах. При видимости от 1 до 10 км при отсутствии осадков обычно наблюдается дымка, при ухудшении видимости до 1 км и менее - туман. В сухую погоду видимость может ухудшаться дымом, пылью или мглою.
Явления - указаны атмосферные явления, наблюдавшиеся в срок или в последний час перед сроком; фигурными скобками обозначены явления, наблюдавшиеся между сроками (за 1-3 часа до срока); квадратными скобками обозначены град или гололедные отложения с указанием их диаметра в мм.
Облачность - указаны через наклонную черту общая и нижняя облачность в баллах и высота нижней границы облаков в метрах; квадратными скобками обозначены формы облаков: Ci - перистые, Cs - перисто-слоистые, Cc - перисто-кучевые, Ac - высококучевые, As - высокослоистые, Sc - слоисто-кучевые, Ns - слоисто-дождевые, Cu - кучевые, Cb - кучево-дождевые. Подробнее классификацию облаков см. в Атласе облаков (PDF).
T - Температура воздуха - температура, измеренная на высоте 2 м над землей.
Td - Температура точки росы - температура, при понижении до которой содержащийся в воздухе водяной пар достигнет насыщения.
f - Относительная влажность воздуха - влажноcть воздуха, измеренная на высоте 2 м над землей.
Te - Эффективная температура - температура, которую ощущает одетый по сезону человек в тени. Характеристика душности погоды. При расчете учитывается влияние влажности воздуха и скорости ветра на теплоощущения человека.
Tes - Эффективная температура на солнце - температура, которую ощущает человек, с поправкой на солнечный нагрев. Характеристика знойности погоды. Зависит от высоты солнца над горизонтом, облачности и скорости ветра. Ночью, в пасмурную погоду, а также при ветре 12 м/с и более поправка равна нулю.
P - Атмосферное давление - приведенное к уровню моря атмосферное давление.
Po - Атмосферное давление - измеренное на уровне метеостанции атмосферное давление.
Tmin - Минимальная температура - минимум температуры воздуха на высоте 2 м над землей.
Tmax - Максимальная температура - максимум температуры воздуха на высоте 2 м над землей.
R - Количество осадков - Количество выпавших осадков за период времени, мм. При наведении курсора мыши на число - период времени, за который выпало указанное количество осадков.
R24 - Количество осадков - Количество выпавших осадков за 24 часа, мм.
S - Снежный покров - Высота снежного покрова, см. При наведении курсора мыши на число - состояние снежного покрова и степень покрытия местности в баллах.